Twin Bridges, CA

11:32 PM PDT on July 28, 2016 (GMT -0700)
Lake Tahoe

Weather History for KTVL - November, 2011

Change the Weather History Date:

Saturday, November 19, 2011

  Actual Average Record
Temperature  
Mean Temperature 34 °F 35 °F  
Max Temperature 40 °F 49 °F 64 °F (2006)
Min Temperature 28 °F 21 °F -3 °F (1994)
Degree Days  
Heating Degree Days 31 30  
Month to date heating degree days 545 513  
Since 1 July heating degree days 1517 1745  
Cooling Degree Days 0 0  
Month to date cooling degree days 0 0  
Year to date cooling degree days 19 31  
Moisture  
Dew Point 19 °F    
Average Humidity 55    
Maximum Humidity 69    
Minimum Humidity 40    
Precipitation  
Precipitation T in - 4.56 in (1950)
Month to date precipitation 0.59  
Year to date precipitation 15.55  
Sea Level Pressure  
Sea Level Pressure 29.75 in    
Wind  
Wind Speed 10 mph (South)    
Max Wind Speed 23 mph    
Max Gust Speed 35 mph    
Visibility 9 miles    
Events Snow    
T = Trace of Precipitation, MM = Missing Value Source: NWS Daily Summary

Daily Weather History Graph

Daily Weather History Graph

Search for Another Location

Airport or City:

Trip Planner

Search our weather history database for the weather conditions in past years. The results will help you decide how hot, cold, wet, or windy it might be!

Date:

Astronomy

Nov. 19, 2011 Rise Set
Actual Time 6:46 AM PST 4:43 PM PST
Civil Twilight 6:18 AM PST 5:12 PM PST
Nautical Twilight 5:45 AM PST 5:44 PM PST
Astronomical Twilight 5:13 AM PST 6:16 PM PST
Moon 12:16 AM PST (11/19) 1:00 PM PST (11/19)
Length of Visible Light 10h 54m
Length of Day
9h 56m
Last Quarter, 37% of the Moon is Illuminated
Nov 19
Last Quarter
Nov 24
New
Dec 2
First Quarter
Dec 10
Full
Dec 17
Last Quarter

Hourly Weather History & Observations

Time (PST) Temp. Windchill Dew Point Humidity Pressure Visibility Wind Dir Wind Speed Gust Speed Precip Events Conditions
12:41 AM 32.0 °F 21.2 °F 21.2 °F 64% 29.77 in 10.0 mi SSW 16.1 mph 21.9 mph N/A   Overcast
12:48 AM 32.0 °F 22.1 °F 21.2 °F 64% 29.78 in 10.0 mi SSW 13.8 mph 24.2 mph N/A   Overcast
12:53 AM 32.0 °F 23.0 °F 21.0 °F 64% 29.75 in 10.0 mi South 11.5 mph 26.5 mph N/A   Overcast
1:53 AM 30.9 °F 20.2 °F 18.0 °F 59% 29.77 in 10.0 mi South 15.0 mph 28.8 mph N/A   Mostly Cloudy
2:53 AM 30.0 °F 21.1 °F 19.0 °F 64% 29.79 in 9.0 mi South 10.4 mph 18.4 mph 0.00 in   Overcast
3:14 AM 30.2 °F 19.8 °F 17.6 °F 60% 29.80 in 10.0 mi South 13.8 mph 20.7 mph N/A   Overcast
3:53 AM 30.2 °F 24.3 °F 17.6 °F 60% 29.79 in 10.0 mi SSW 5.8 mph - N/A   Overcast
4:33 AM 28.4 °F 18.0 °F 17.6 °F 64% 29.79 in 10.0 mi SSW 12.7 mph 24.2 mph N/A   Scattered Clouds
4:53 AM 28.9 °F 17.3 °F 17.1 °F 61% 29.79 in 10.0 mi South 16.1 mph 23.0 mph N/A   Scattered Clouds
5:53 AM 28.0 °F 18.6 °F 17.1 °F 63% 29.80 in 10.0 mi SSW 10.4 mph 19.6 mph N/A   Clear
6:53 AM 28.9 °F 18.6 °F 16.0 °F 58% 29.79 in 10.0 mi South 12.7 mph - N/A   Clear
7:53 AM 28.9 °F 18.6 °F 17.1 °F 61% 29.79 in 10.0 mi South 12.7 mph - N/A   Clear
8:53 AM 32.0 °F 23.6 °F 18.0 °F 56% 29.79 in 10.0 mi South 10.4 mph - N/A   Clear
9:53 AM 35.1 °F 25.5 °F 18.0 °F 50% 29.77 in 10.0 mi South 15.0 mph 20.7 mph N/A   Clear
10:53 AM 37.9 °F 30.0 °F 17.1 °F 43% 29.75 in 10.0 mi South 12.7 mph 19.6 mph N/A   Clear
11:53 AM 37.9 °F 31.5 °F 19.0 °F 47% 29.74 in 10.0 mi SSW 9.2 mph 21.9 mph N/A   Clear
12:53 PM 37.4 °F 30.3 °F 19.4 °F 48% 29.76 in 10.0 mi SSW 10.4 mph 18.4 mph N/A   Clear
1:53 PM 39.0 °F 33.4 °F 19.9 °F 46% 29.72 in 10.0 mi SSW 8.1 mph 16.1 mph N/A   Clear
2:53 PM 39.0 °F 32.3 °F 17.1 °F 41% 29.70 in 10.0 mi SSW 10.4 mph - N/A   Clear
3:53 PM 37.0 °F 29.8 °F 18.0 °F 46% 29.71 in 10.0 mi SSW 10.4 mph 21.9 mph N/A   Clear
4:53 PM 35.6 °F 29.2 °F 15.8 °F 44% 29.72 in 10.0 mi SSW 8.1 mph - N/A   Clear
5:53 PM 34.0 °F 28.8 °F 15.1 °F 46% 29.71 in 10.0 mi SSW 5.8 mph - N/A   Clear
6:53 PM 30.9 °F 26.2 °F 17.1 °F 57% 29.70 in 10.0 mi South 4.6 mph - N/A   Scattered Clouds
7:53 PM 32.0 °F 25.6 °F 16.0 °F 52% 29.69 in 10.0 mi SSW 6.9 mph - N/A   Clear
8:53 PM 30.0 °F 24.1 °F 18.0 °F 61% 29.71 in 10.0 mi South 5.8 mph - N/A   Partly Cloudy
9:53 PM 30.2 °F 25.4 °F 21.2 °F 69% 29.72 in 10.0 mi SE 4.6 mph - N/A   Overcast
10:53 PM 32.0 °F 27.5 °F 19.9 °F 61% 29.68 in 10.0 mi SE 4.6 mph - N/A   Overcast
11:41 PM 30.2 °F 23.4 °F 23.0 °F 75% 29.73 in 2.5 mi SSW 6.9 mph - 0.00 in Snow Light Snow
11:48 PM 30.2 °F 22.6 °F 24.8 °F 80% 29.73 in 1.2 mi South 8.1 mph - 0.00 in Snow Light Snow
11:49 PM 30.9 °F 23.5 °F 24.1 °F 76% 29.70 in 1.2 mi SSW 8.1 mph - 0.00 in Snow Light Snow